Location: Buckeye Ditch
(40.9104°N, 122.9517°W)
Time: 14:35:26
(UTC+00:00)

Transit 2A - Pass Details

Date: 19 May 2025
Orbit: 599 x 947 km, 66.7° (Epoch: 15 June)

Event Time Altitude Azimuth Distance (km) Brightness Sun altitude
Rises 22:51:16 0° 342° (NNW) 2,874 9.0 49.6°
Reaches altitude 10° 22:54:00 10° 360° (N) 1,992 8.2 49.2°
Maximum altitude 22:57:21 20° 49° (NE) 1,466 7.3 48.6°
Drops below altitude 10° 23:00:51 10° 97° (E) 2,092 8.0 47.9°
Sets 23:03:47 0° 114° (ESE) 3,065 8.8 47.4°
